Tiempo cada hora Aalten

Hoy, 24 Octubre, Sábado

Tiempo Temperatura Precipitaciones Viento Presión Humedad
00:00 +11°C° 0 mm 4 mps 755 mmHg 91%
01:00 +10°C° 0 mm 4 mps 755 mmHg 92%
02:00 +10°C° 0 mm 4 mps 755 mmHg 93%
03:00 +10°C° 0 mm 4 mps 755 mmHg 94%
04:00 +9°C° 0 mm 5 mps 755 mmHg 94%
05:00 +9°C° 0 mm 5 mps 755 mmHg 94%
06:00 +9°C° 0 mm 5 mps 755 mmHg 93%
07:00 +10°C° 0 mm 5 mps 755 mmHg 91%
08:00 +10°C° 0 mm 6 mps 756 mmHg 88%
09:00 +11°C° 0 mm 6 mps 756 mmHg 86%
10:00 +11°C° 0 mm 6 mps 755 mmHg 85%
11:00 +13°C° 0 mm 6 mps 755 mmHg 83%
12:00 +13°C° 0 mm 6 mps 755 mmHg 82%
13:00 +13°C° 0.1 mm 6 mps 755 mmHg 82%
14:00 +14°C° 0.1 mm 6 mps 754 mmHg 82%
15:00 +14°C° 0.1 mm 7 mps 754 mmHg 81%
16:00 +14°C° 0 mm 7 mps 754 mmHg 81%
17:00 +14°C° 0 mm 7 mps 754 mmHg 82%
18:00 +14°C° 0 mm 7 mps 753 mmHg 82%
19:00 +12°C° 0 mm 7 mps 753 mmHg 82%
20:00 +12°C° 0 mm 7 mps 753 mmHg 82%
21:00 +12°C° 0 mm 7 mps 752 mmHg 82%
22:00 +12°C° 0 mm 7 mps 752 mmHg 81%
23:00 +12°C° 0 mm 7 mps 752 mmHg 79%

Mañana, 25 Octubre, Domingo

Tiempo Temperatura Precipitaciones Viento Presión Humedad
00:00 +12°C° 0 mm 8 mps 751 mmHg 78%
01:00 +12°C° 0 mm 8 mps 751 mmHg 77%
02:00 +12°C° 0 mm 7 mps 750 mmHg 76%
03:00 +12°C° 0 mm 7 mps 749 mmHg 74%
04:00 +14°C° 0 mm 7 mps 749 mmHg 73%
05:00 +14°C° 0 mm 7 mps 749 mmHg 71%
06:00 +14°C° 0 mm 7 mps 749 mmHg 70%
07:00 +12°C° 0.4 mm 7 mps 749 mmHg 75%
08:00 +12°C° 0.4 mm 7 mps 749 mmHg 80%
09:00 +12°C° 0.4 mm 8 mps 749 mmHg 85%
10:00 +12°C° 0.3 mm 7 mps 749 mmHg 85%
11:00 +12°C° 0.3 mm 7 mps 749 mmHg 84%
12:00 +13°C° 0.3 mm 6 mps 749 mmHg 84%
13:00 +11°C° 0.6 mm 6 mps 749 mmHg 85%
14:00 +12°C° 0.6 mm 5 mps 749 mmHg 86%
15:00 +12°C° 0.6 mm 5 mps 748 mmHg 87%
16:00 +10°C° 0.2 mm 5 mps 749 mmHg 87%
17:00 +11°C° 0.2 mm 4 mps 749 mmHg 87%
18:00 +10°C° 0.2 mm 4 mps 749 mmHg 88%
19:00 +10°C° 0.2 mm 4 mps 749 mmHg 87%
20:00 +10°C° 0.2 mm 4 mps 749 mmHg 86%
21:00 +10°C° 0.2 mm 4 mps 749 mmHg 86%
22:00 +8°C° 0 mm 5 mps 749 mmHg 86%
23:00 +8°C° 0 mm 5 mps 749 mmHg 86%

Pasado mañana, 26 Octubre, Lunes

Tiempo Temperatura Precipitaciones Viento Presión Humedad
00:00 +8°C° 0 mm 5 mps 749 mmHg 86%
01:00 +7°C° 0 mm 5 mps 749 mmHg 87%
02:00 +7°C° 0 mm 5 mps 749 mmHg 88%
03:00 +7°C° 0 mm 5 mps 749 mmHg 90%
04:00 +7°C° 0 mm 5 mps 749 mmHg 90%
05:00 +7°C° 0 mm 5 mps 749 mmHg 91%
06:00 +6°C° 0 mm 5 mps 749 mmHg 92%
07:00 +7°C° 0 mm 5 mps 749 mmHg 88%
08:00 +8°C° 0 mm 5 mps 749 mmHg 85%
09:00 +9°C° 0 mm 6 mps 750 mmHg 81%
10:00 +9°C° 0 mm 6 mps 750 mmHg 77%
11:00 +10°C° 0 mm 6 mps 750 mmHg 72%
12:00 +11°C° 0 mm 6 mps 750 mmHg 68%
13:00 +11°C° 0 mm 6 mps 749 mmHg 68%
14:00 +12°C° 0 mm 5 mps 749 mmHg 68%
15:00 +12°C° 0 mm 5 mps 749 mmHg 69%
16:00 +10°C° 0 mm 5 mps 749 mmHg 71%
17:00 +9°C° 0 mm 5 mps 749 mmHg 73%
18:00 +8°C° 0 mm 5 mps 749 mmHg 76%
19:00 +8°C° 0 mm 5 mps 749 mmHg 76%
20:00 +8°C° 0 mm 6 mps 749 mmHg 77%
21:00 +8°C° 0 mm 6 mps 749 mmHg 78%
22:00 +8°C° 0 mm 6 mps 749 mmHg 79%
23:00 +8°C° 0 mm 6 mps 749 mmHg 79%

, 27 Octubre, Martes

Tiempo Temperatura Precipitaciones Viento Presión Humedad
00:00 +7°C° 0 mm 6 mps 749 mmHg 80%
01:00 +7°C° 0 mm 5 mps 749 mmHg 82%
02:00 +7°C° 0 mm 5 mps 749 mmHg 85%
03:00 +6°C° 0 mm 5 mps 749 mmHg 87%
04:00 +6°C° 0 mm 5 mps 749 mmHg 88%
05:00 +6°C° 0 mm 5 mps 749 mmHg 88%
06:00 +6°C° 0 mm 5 mps 750 mmHg 89%
07:00 +7°C° 0 mm 6 mps 750 mmHg 86%
08:00 +8°C° 0 mm 6 mps 750 mmHg 83%
09:00 +9°C° 0 mm 7 mps 750 mmHg 80%
10:00 +9°C° 0 mm 7 mps 750 mmHg 78%
11:00 +9°C° 0 mm 7 mps 750 mmHg 76%
12:00 +10°C° 0 mm 7 mps 750 mmHg 74%
13:00 +10°C° 0 mm 6 mps 750 mmHg 73%
14:00 +10°C° 0 mm 6 mps 750 mmHg 72%
15:00 +10°C° 0 mm 6 mps 750 mmHg 70%
16:00 +10°C° 0 mm 6 mps 750 mmHg 71%
17:00 +9°C° 0 mm 6 mps 749 mmHg 71%
18:00 +9°C° 0 mm 6 mps 749 mmHg 72%
19:00 +9°C° 0.2 mm 7 mps 749 mmHg 75%
20:00 +9°C° 0.2 mm 7 mps 748 mmHg 78%
21:00 +9°C° 0.2 mm 8 mps 748 mmHg 81%
22:00 +9°C° 0.8 mm 8 mps 747 mmHg 84%
23:00 +9°C° 0.8 mm 7 mps 747 mmHg 87%

27 Octubre, Martes

Tiempo Temperatura Precipitaciones Viento Presión Humedad
00:00 +7°C° 0 mm 6 mps 749 mmHg 80%
01:00 +7°C° 0 mm 5 mps 749 mmHg 82%
02:00 +7°C° 0 mm 5 mps 749 mmHg 85%
03:00 +6°C° 0 mm 5 mps 749 mmHg 87%
04:00 +6°C° 0 mm 5 mps 749 mmHg 88%
05:00 +6°C° 0 mm 5 mps 749 mmHg 88%
06:00 +6°C° 0 mm 5 mps 750 mmHg 89%
07:00 +7°C° 0 mm 6 mps 750 mmHg 86%
08:00 +8°C° 0 mm 6 mps 750 mmHg 83%
09:00 +9°C° 0 mm 7 mps 750 mmHg 80%
10:00 +9°C° 0 mm 7 mps 750 mmHg 78%
11:00 +9°C° 0 mm 7 mps 750 mmHg 76%
12:00 +10°C° 0 mm 7 mps 750 mmHg 74%
13:00 +10°C° 0 mm 6 mps 750 mmHg 73%
14:00 +10°C° 0 mm 6 mps 750 mmHg 72%
15:00 +10°C° 0 mm 6 mps 750 mmHg 70%
16:00 +10°C° 0 mm 6 mps 750 mmHg 71%
17:00 +9°C° 0 mm 6 mps 749 mmHg 71%
18:00 +9°C° 0 mm 6 mps 749 mmHg 72%
19:00 +9°C° 0.2 mm 7 mps 749 mmHg 75%
20:00 +9°C° 0.2 mm 7 mps 748 mmHg 78%
21:00 +9°C° 0.2 mm 8 mps 748 mmHg 81%
22:00 +9°C° 0.8 mm 8 mps 747 mmHg 84%
23:00 +9°C° 0.8 mm 7 mps 747 mmHg 87%

28 Octubre, Miércoles

Tiempo Temperatura Precipitaciones Viento Presión Humedad
00:00 +10°C° 0.8 mm 7 mps 747 mmHg 91%
01:00 +9°C° 0.5 mm 6 mps 747 mmHg 88%
02:00 +9°C° 0.5 mm 6 mps 748 mmHg 86%
03:00 +9°C° 0.5 mm 5 mps 748 mmHg 84%
04:00 +8°C° 0 mm 5 mps 749 mmHg 86%
05:00 +8°C° 0 mm 5 mps 749 mmHg 88%
06:00 +7°C° 0 mm 5 mps 749 mmHg 90%
07:00 +8°C° 0 mm 6 mps 749 mmHg 85%
08:00 +9°C° 0 mm 6 mps 749 mmHg 80%
09:00 +10°C° 0 mm 7 mps 749 mmHg 75%
10:00 +10°C° 0.2 mm 8 mps 749 mmHg 74%
11:00 +11°C° 0.2 mm 8 mps 749 mmHg 73%
12:00 +11°C° 0.2 mm 8 mps 749 mmHg 72%
13:00 +11°C° 0.2 mm 8 mps 749 mmHg 73%
14:00 +10°C° 0.2 mm 8 mps 749 mmHg 75%
15:00 +10°C° 0.2 mm 7 mps 749 mmHg 77%
16:00 +10°C° 0.1 mm 7 mps 749 mmHg 77%
17:00 +9°C° 0.1 mm 7 mps 749 mmHg 78%
18:00 +9°C° 0.1 mm 7 mps 749 mmHg 78%
19:00 +9°C° 0 mm 8 mps 749 mmHg 77%
20:00 +9°C° 0 mm 8 mps 749 mmHg 77%
21:00 +8°C° 0 mm 9 mps 749 mmHg 76%
22:00 +8°C° 0.3 mm 9 mps 749 mmHg 79%
23:00 +8°C° 0.3 mm 9 mps 749 mmHg 81%

29 Octubre, Jueves

Tiempo Temperatura Precipitaciones Viento Presión Humedad
00:00 +7°C° 0.3 mm 9 mps 749 mmHg 84%
01:00 +7°C° 0.1 mm 9 mps 750 mmHg 83%
02:00 +7°C° 0.1 mm 9 mps 750 mmHg 83%
03:00 +7°C° 0.1 mm 9 mps 750 mmHg 82%
04:00 +7°C° 0.1 mm 9 mps 751 mmHg 83%
05:00 +7°C° 0.1 mm 9 mps 752 mmHg 83%
06:00 +7°C° 0.1 mm 9 mps 752 mmHg 84%
07:00 +8°C° 0 mm 9 mps 753 mmHg 82%
08:00 +8°C° 0 mm 9 mps 753 mmHg 81%
09:00 +10°C° 0 mm 9 mps 754 mmHg 80%
10:00 +10°C° 0 mm 9 mps 754 mmHg 78%
11:00 +11°C° 0 mm 9 mps 754 mmHg 76%
12:00 +11°C° 0 mm 9 mps 754 mmHg 75%
13:00 +11°C° 0 mm 9 mps 754 mmHg 74%
14:00 +11°C° 0 mm 8 mps 754 mmHg 74%
15:00 +11°C° 0 mm 8 mps 754 mmHg 73%
16:00 +11°C° 0.2 mm 9 mps 754 mmHg 76%
17:00 +11°C° 0.2 mm 9 mps 754 mmHg 78%
18:00 +11°C° 0.2 mm 9 mps 754 mmHg 81%
19:00 +12°C° 0.3 mm 10 mps 754 mmHg 81%
20:00 +12°C° 0.3 mm 10 mps 754 mmHg 82%
21:00 +12°C° 0.3 mm 10 mps 754 mmHg 82%
22:00 +12°C° 0 mm 9 mps 755 mmHg 81%
23:00 +12°C° 0 mm 9 mps 755 mmHg 80%
Mostrar más

Necesitamos Su Consentimiento

Meteoprog y nuestros Proveedores de Servicios pueden almacenar y acceder a sus datos personales como cookies, identificadores de dispositivo u otras tecnologías similares de su dispositivo y procesar dichos datos para personalizar contenido y anuncios, además de ofrecer funciones de redes sociales y analizar el tráfico.

  • Almacenar y/o acceder a información en su dispositivo

    Se puede almacenar o acceder a cookies, identificadores de dispositivo u otra información de su dispositivo para los fines anteriormente indicados.

  • Anuncios y contenido personalizados, medición de anuncios y contenido, percepciones del público, y desarrollo de productos

    Los anuncios y el contenido pueden personalizarse en base a su perfil. Se pueden añadir más datos para personalizar mejor los anuncios y contenidos. Se puede medir el rendimiento de los anuncios y contenidos. Se puede obtener la percepción sobre el público que ha visto los anuncios y contenidos. Dichos datos pueden usarse para desarrollar o mejorar la experiencia del usuario, sistemas y software.

Al hacer clic en ‘Estoy De Acuerdo’ usted permitirá el uso de las cookies, identificadores de dispositivo, balizas web u otras tecnologías similares indicadas. Su configuración puede cambiarse desde el navegador de su dispositivo.

Para ciertos fines, los intereses legítimos pueden ser considerados por encima del consentimiento. Puede leer más sobre ello en nuestra Política de Privacidad y Cookies.